This demonstration page uses our WeatherBlox Daily Observations layout. Learn more.

Left ArrowRight Arrow

36.17497, -115.13722

Hourly Observations for October 5, 2019

Temp ( °F °C ) Dew Point ( °F °C ) Humidity (%) Winds ( mph kmh ) Pressure ( in mb ) Visibility ( mi km ) Precip ( " mm )
12:53 am 00:53 Clear 71 21.7 11 -11.7 10 10 NNW 12 19 30.01 1016 10 16.0934 N/A
1:53 am 01:53 Clear 70 21.1 8 -13.3 9 9 NNW 10 17 30.02 1017 10 16.0934 N/A
2:53 am 02:53 Clear 66 18.9 6 -14.4 9 9 VRB 3 6 30.05 1018 10 16.0934 N/A
3:53 am 03:53 Clear 65 18.3 5 -15 9 9 NW 5 7 30.06 1018 10 16.0934 N/A
4:53 am 04:53 Clear 62 16.7 6 -14.4 11 11 NW 10 17 30.09 1019 10 16.0934 N/A
5:53 am 05:53 Clear 61 16.1 7 -13.9 11 11 WNW 7 11 30.11 1020 10 16.0934 N/A
6:53 am 06:53 Sunny 58 14.4 11 -11.7 15 15 WNW 6 9 30.13 1020 10 16.0934 N/A
7:53 am 07:53 Sunny 63 17.2 16 -8.9 16 16 NW 5 7 30.15 1021 10 16.0934 N/A
8:53 am 08:53 Sunny 69 20.6 14 -10 12 12 NNW 9 15 30.16 1022 10 16.0934 N/A
9:53 am 09:53 Sunny 72 22.2 14 -10 11 11 NNE 5 7 30.17 1022 10 16.0934 N/A
10:53 am 10:53 Sunny 74 23.3 12 -11.1 9 9 N N/A 30.16 1021 10 16.0934 N/A
11:53 am 11:53 Sunny 75 23.9 14 -10 10 10 N N/A 30.14 1021 10 16.0934 N/A
12:53 pm 12:53 Sunny 79 26.1 16 -8.9 9 9 E 3 6 30.1 1019 10 16.0934 N/A
1:53 pm 13:53 Sunny 80 26.7 15 -9.4 8 8 VRB 5 7 30.06 1018 10 16.0934 N/A
2:53 pm 14:53 Sunny 82 27.8 13 -10.6 7 7 E 3 6 30.04 1017 10 16.0934 N/A
3:53 pm 15:53 Sunny 82 27.8 13 -10.6 7 7 N N/A 30.02 1017 10 16.0934 N/A
4:53 pm 16:53 Sunny 84 28.9 14 -10 7 7 VRB 3 6 30.01 1016 10 16.0934 N/A
5:53 pm 17:53 Sunny 82 27.8 14 -10 8 8 N N/A 30 1016 10 16.0934 N/A
6:53 pm 18:53 Clear 79 26.1 17 -8.3 10 10 NNW 5 7 30.01 1016 10 16.0934 N/A
7:53 pm 19:53 Clear 75 23.9 18 -7.8 11 11 N N/A 30.02 1017 10 16.0934 N/A
8:53 pm 20:53 Clear 72 22.2 25 -3.9 17 17 W 7 11 30.03 1017 10 16.0934 N/A
9:53 pm 21:53 Clear 68 20 25 -3.9 20 20 NNW 5 7 30.04 1017 10 16.0934 N/A
10:53 pm 22:53 Clear 67 19.4 22 -5.6 18 18 NNW 5 7 30.04 1017 10 16.0934 N/A
11:53 pm 23:53 Clear 67 19.4 19 -7.2 16 16 WNW 7 11 30.04 1017 10 16.0934 N/A

Powered by AerisWeather